OBJECT K, 61903

Orbit data source: Space-Track

You're viewing an Uncataloged Satellite

Recently launched and/or uncataloged satellites may have evolving metadata. Metadata may include but not limited to: Owner, Maufacturer, Bus, Motor, and Mission.

OBJECT K, 61903 is a satellite owned by Yunyao yuhang (CN) in SSO that was launched on Mon, 11 Nov 2024 UTC via a LIJIAN-1 launch vehicle from the Jiuquan Satellite Launch Center, China (JSC). Unknown objects in Earth's orbit typically refer to objects detected orbiting the Earth but have not yet been identified or cataloged. These objects could be anything from previously untracked satellites, spent rocket stages, debris from satellite collisions, or even natural meteoroids temporarily captured by Earth's gravity.

Loading next visibility...
OBJECT K details
Identifier
61903, 2024-205K
Orbit
SSO
Last TLE update11 hours ago
Origin
Flag of CNYunyao yuhang (CN / PRC)
ManufacturerYunyao yuhang
MissionOperational spacecraft
Bus & MotorYY-1, Unknown motor
Mass~50 kg wet, ~50 kg dry
Launch date (UTC)
2024-11-11 (1 month ago)
Launch vehicle
LIJIAN-1
Launch site
Jiuquan Satellite Launch Center, China (JSC)
Object typeUnknown
Shape & HBRUnknown
Radar Cross SectionMedium (>0.1 m² and <1 m²)

Expand to show TLE details & history

TLE from 11 hours ago
0 OBJECT K
1 61903U 24205K   24348.44289918  .00013748  00000-0  72302-3 0  9998
2 61903  97.4714  60.0723 0013949 169.6884 190.4637 15.15692885  4856
Epoch: 2024-12-13T10:37Z
Definitive object data (Epoch: 2024-12-13T10:37:46.489Z)
Latitude-0.00005°
Longitude178.01979°
Altitude531.422 km
Speed7.592 km/s
True Right ascension04h 00m 17s
True Declination0° 00' 00"
Sunlit
Object was in full shadow at TLE epoch
Visualization TLE readout
Latitude20.25861°
Longitude175.71887°
Altitude529.637 km
Speed7.595 km/s
Apparent Right ascension05h 44m 33s
Apparent Declination-10° 05' 24"
Sunlit
Object is in full shadow
Visualization observer readout
Local Sidereal Time20:20:24
Azimuth60.041° ENE
Elevation-44.392°
Doppler factor1
Orbital elements
Apogee altitude525.467 km
Perigee altitude506.234 km
Semi-major axis6,893.987 km
Eccentricity0.0013949
Inclination97.4714°
RAAN60.0723°
Arg. of periapsis169.6884°
True anomaly190.43472°
Mean anomaly190.4637°
Eccentric anomaly190.44921°
Mean motion3.79173 °/min
BSTAR0.00072302
Orbital period94.94 mins
Loading maneuver chart data...
Loading historical data...
Loading historical data...
Loading historical data...
Loading historical data...
Loading historical data...
Loading historical data...
Loading historical data...

OBJECT K Visibility forecast

Observer location: undefined°, undefined

Span
Click to sort rows by Start time (UTC) header in descending order
Start Az.
Max El. time (UTC)
Max El. Az.
Max El.
End time (UTC)
End Az.
5 mins2024-12-14 04:12:36.962Z112.01° ESE2024-12-14 04:14:36.962Z75.238° E19.662°2024-12-14 04:17:36.962Z20.864° NNE
4 mins2024-12-14 05:47:36.962Z234.533° WSW2024-12-14 05:48:36.962Z258.057° W22.295°2024-12-14 05:51:36.962Z316.687° NNW
4 mins2024-12-14 17:19:36.962Z54.404° ENE2024-12-14 17:21:36.962Z111.699° ESE26.434°2024-12-14 17:23:36.962Z152.819° SSE
|